Beibuwan-1

operational
NORAD ID: 66055 Int'l Des: 2025-234 Owner: ZHWK Country: CN
LEOCIRCULARRETROGRADESSO

About Beibuwan-1

Description loading...

Live Position

Loading 3D Globe...

Upcoming Passes

Altitude History

Altitude vs Time

uPlot chart will show altitude changes over time

Two-Line Element Set

1 66055U 25234C 25318.83020369 .00007865 00000-0 35097-3 0 9991
2 66055 97.4557 24.2454 0015470 184.9694 175.1390 15.21547016 4068
Epoch: Nov 14, 2025 • Age: 7 hours

Current Status

Altitude 510.7 km
Velocity 7.62 km/s
Sub-Earth Point 70.55°N, 131.02°E
Launch Date Oct 19, 2025
Age 27 days
Type other

Technical Details

Classification Payload
Mass 250.00 kg
Dry Mass 250.00 kg
Total Mass 250.00 kg
Length 1.00 m
Diameter 1.00 m
Span 6.00 m
Shape Box+3 pan
Manufacturer ZHWK/SECM
Bus Type ZK1
Phase Status In Orbit
Owner/State ZHWK/CN

Large Constellations

Loading constellations...